When you browse on this site, cookies collect data to enhance your experience and personalize the content and advertising you see.
Visit our Privacy Policy to learn more. By continuing to use the site, you agree to this use of cookies and data.
  • In United Kingdom
  • List of Countries
  • For 7 days
  • Water Temperature
  • Satellite Maps
  • Weather Map
  • Weather Widgets
  • user-avatar
    Login

    Hourly Weather Porto Velho

    Today, 19 November, Monday

    Time Temperature Precipitation Wind Pressure Humidity
    00:00 +25°C° 0.3 mm 0 mps 750 mmHg 90%
    01:00 +24°C° 0.3 mm 0 mps 750 mmHg 92%
    02:00 +24°C° 0 mm 0 mps 750 mmHg 93%
    03:00 +24°C° 0 mm 0 mps 750 mmHg 94%
    04:00 +24°C° 0 mm 0 mps 750 mmHg 94%
    05:00 +24°C° 0 mm 0 mps 750 mmHg 94%
    06:00 +25°C° 0 mm 0 mps 750 mmHg 89%
    07:00 +26°C° 0 mm 0 mps 751 mmHg 84%
    08:00 +28°C° 0 mm 0 mps 751 mmHg 77%
    09:00 +30°C° 0 mm 0 mps 751 mmHg 66%
    10:00 +34°C° 0 mm 1 mps 750 mmHg 55%
    11:00 +37°C° 0 mm 1 mps 750 mmHg 44%
    12:00 +37°C° 0 mm 1 mps 749 mmHg 43%
    13:00 +37°C° 0 mm 1 mps 749 mmHg 43%
    14:00 +37°C° 0 mm 1 mps 748 mmHg 42%
    15:00 +36°C° 0 mm 1 mps 748 mmHg 45%
    16:00 +33°C° 0 mm 0 mps 747 mmHg 48%
    17:00 +33°C° 0 mm 0 mps 747 mmHg 51%
    18:00 +31°C° 0.1 mm 0 mps 747 mmHg 57%
    19:00 +29°C° 0.1 mm 0 mps 748 mmHg 64%
    20:00 +30°C° 0.1 mm 1 mps 748 mmHg 70%
    21:00 +27°C° 0.3 mm 0 mps 749 mmHg 75%
    22:00 +26°C° 0.3 mm 0 mps 749 mmHg 79%
    23:00 +25°C° 0.3 mm 0 mps 749 mmHg 84%

    Tomorrow, 20 November, Tuesday

    Time Temperature Precipitation Wind Pressure Humidity
    00:00 +25°C° 0 mm 0 mps 749 mmHg 85%
    01:00 +25°C° 0 mm 0 mps 749 mmHg 86%
    02:00 +27°C° 0 mm 1 mps 749 mmHg 87%
    03:00 +26°C° 0.3 mm 1 mps 749 mmHg 89%
    04:00 +26°C° 0.3 mm 1 mps 749 mmHg 92%
    05:00 +24°C° 0.3 mm 0 mps 749 mmHg 94%
    06:00 +26°C° 0.5 mm 1 mps 749 mmHg 93%
    07:00 +27°C° 0.5 mm 1 mps 750 mmHg 92%
    08:00 +27°C° 0.5 mm 1 mps 751 mmHg 90%
    09:00 +30°C° 0.6 mm 1 mps 750 mmHg 82%
    10:00 +32°C° 0.6 mm 1 mps 750 mmHg 74%
    11:00 +34°C° 0.6 mm 1 mps 750 mmHg 66%
    12:00 +35°C° 0.3 mm 1 mps 750 mmHg 59%
    13:00 +35°C° 0.3 mm 1 mps 749 mmHg 53%
    14:00 +36°C° 0.3 mm 1 mps 748 mmHg 47%
    15:00 +35°C° 0.1 mm 1 mps 748 mmHg 50%
    16:00 +34°C° 0.1 mm 1 mps 748 mmHg 54%
    17:00 +33°C° 0.1 mm 1 mps 747 mmHg 58%
    18:00 +32°C° 0.1 mm 1 mps 748 mmHg 65%
    19:00 +30°C° 0.1 mm 1 mps 748 mmHg 72%
    20:00 +26°C° 0.1 mm 0 mps 749 mmHg 79%
    21:00 +26°C° 0 mm 0 mps 749 mmHg 81%
    22:00 +26°C° 0 mm 0 mps 750 mmHg 82%
    23:00 +26°C° 0 mm 0 mps 750 mmHg 84%

    Day after tomorrow, 21 November, Wednesday

    Time Temperature Precipitation Wind Pressure Humidity
    00:00 +25°C° 0.1 mm 0 mps 750 mmHg 85%
    01:00 +25°C° 0.1 mm 0 mps 749 mmHg 87%
    02:00 +25°C° 0.1 mm 0 mps 749 mmHg 89%
    03:00 +24°C° 0.3 mm 0 mps 749 mmHg 90%
    04:00 +24°C° 0.3 mm 0 mps 749 mmHg 92%
    05:00 +24°C° 0.3 mm 0 mps 749 mmHg 94%
    06:00 +25°C° 0.5 mm 0 mps 750 mmHg 91%
    07:00 +26°C° 0.5 mm 0 mps 751 mmHg 87%
    08:00 +29°C° 0.5 mm 1 mps 751 mmHg 84%
    09:00 +29°C° 1.2 mm 0 mps 751 mmHg 77%
    10:00 +31°C° 1.2 mm 0 mps 751 mmHg 70%
    11:00 +33°C° 1.2 mm 0 mps 751 mmHg 63%
    12:00 +33°C° 0.7 mm 0 mps 750 mmHg 60%
    13:00 +35°C° 0.7 mm 1 mps 749 mmHg 57%
    14:00 +36°C° 0.7 mm 1 mps 748 mmHg 54%
    15:00 +35°C° 0 mm 1 mps 747 mmHg 55%
    16:00 +35°C° 0 mm 1 mps 747 mmHg 55%
    17:00 +34°C° 0 mm 1 mps 747 mmHg 56%
    18:00 +33°C° 0 mm 1 mps 747 mmHg 62%
    19:00 +29°C° 0 mm 0 mps 747 mmHg 67%
    20:00 +27°C° 0 mm 0 mps 748 mmHg 73%
    21:00 +29°C° 0.5 mm 1 mps 748 mmHg 77%
    22:00 +28°C° 0.5 mm 1 mps 749 mmHg 81%
    23:00 +27°C° 0.5 mm 1 mps 749 mmHg 85%

    22 November, Thursday

    Time Temperature Precipitation Wind Pressure Humidity
    00:00 +27°C° 0.6 mm 1 mps 749 mmHg 89%
    01:00 +26°C° 0.6 mm 1 mps 749 mmHg 93%
    02:00 +26°C° 0.6 mm 1 mps 748 mmHg 96%
    03:00 +26°C° 0 mm 1 mps 748 mmHg 97%
    04:00 +24°C° 0 mm 0 mps 748 mmHg 97%
    05:00 +24°C° 0 mm 0 mps 748 mmHg 98%
    06:00 +25°C° 0 mm 0 mps 749 mmHg 95%
    07:00 +25°C° 0 mm 0 mps 749 mmHg 92%
    08:00 +28°C° 0 mm 1 mps 750 mmHg 89%
    09:00 +30°C° 0.4 mm 1 mps 750 mmHg 80%
    10:00 +32°C° 0.4 mm 1 mps 750 mmHg 72%
    11:00 +34°C° 0.4 mm 1 mps 750 mmHg 64%
    12:00 +34°C° 1.2 mm 1 mps 749 mmHg 63%
    13:00 +34°C° 1.2 mm 1 mps 748 mmHg 63%
    14:00 +35°C° 1.2 mm 1 mps 747 mmHg 62%
    15:00 +34°C° 0.2 mm 1 mps 746 mmHg 62%
    16:00 +34°C° 0.2 mm 1 mps 746 mmHg 63%
    17:00 +31°C° 0.2 mm 0 mps 746 mmHg 63%
    18:00 +30°C° 0.3 mm 0 mps 746 mmHg 69%
    19:00 +28°C° 0.3 mm 0 mps 747 mmHg 76%
    20:00 +27°C° 0.3 mm 0 mps 747 mmHg 82%
    21:00 +26°C° 0.3 mm 0 mps 748 mmHg 85%
    22:00 +26°C° 0.3 mm 0 mps 748 mmHg 87%
    23:00 +25°C° 0.3 mm 0 mps 748 mmHg 90%

    23 November, Friday

    Time Temperature Precipitation Wind Pressure Humidity
    00:00 +25°C° 1.3 mm 0 mps 748 mmHg 92%
    01:00 +24°C° 1.3 mm 0 mps 747 mmHg 94%
    02:00 +24°C° 1.3 mm 0 mps 747 mmHg 96%
    03:00 +24°C° 1.2 mm 0 mps 747 mmHg 97%
    04:00 +24°C° 1.2 mm 0 mps 747 mmHg 97%
    05:00 +24°C° 1.2 mm 0 mps 747 mmHg 97%
    06:00 +26°C° 1.2 mm 1 mps 748 mmHg 96%
    07:00 +27°C° 1.2 mm 1 mps 749 mmHg 96%
    08:00 +27°C° 1.2 mm 1 mps 750 mmHg 95%
    09:00 +28°C° 1.4 mm 1 mps 749 mmHg 94%
    10:00 +28°C° 1.4 mm 1 mps 749 mmHg 92%
    11:00 +29°C° 1.4 mm 1 mps 749 mmHg 91%
    12:00 +29°C° 1.1 mm 1 mps 749 mmHg 90%
    13:00 +29°C° 1.1 mm 1 mps 748 mmHg 89%
    14:00 +29°C° 1.1 mm 1 mps 747 mmHg 88%
    15:00 +29°C° 0.7 mm 1 mps 747 mmHg 88%
    16:00 +29°C° 0.7 mm 1 mps 747 mmHg 87%
    17:00 +29°C° 0.7 mm 1 mps 746 mmHg 87%
    18:00 +28°C° 0.2 mm 1 mps 747 mmHg 90%
    19:00 +27°C° 0.2 mm 1 mps 747 mmHg 93%
    20:00 +27°C° 0.2 mm 1 mps 748 mmHg 95%
    21:00 +26°C° 0.1 mm 1 mps 748 mmHg 96%
    22:00 +26°C° 0.1 mm 1 mps 749 mmHg 96%
    23:00 +26°C° 0.1 mm 1 mps 749 mmHg 96%

    24 November, Saturday

    Time Temperature Precipitation Wind Pressure Humidity
    00:00 +26°C° 0.1 mm 1 mps 748 mmHg 97%
    01:00 +26°C° 0.1 mm 1 mps 748 mmHg 97%
    02:00 +25°C° 0.1 mm 1 mps 748 mmHg 97%
    03:00 +25°C° 0.1 mm 1 mps 748 mmHg 97%
    04:00 +23°C° 0.1 mm 0 mps 748 mmHg 98%
    05:00 +23°C° 0.1 mm 0 mps 748 mmHg 98%
    06:00 +26°C° 0.1 mm 1 mps 749 mmHg 95%
    07:00 +26°C° 0.1 mm 1 mps 750 mmHg 93%
    08:00 +27°C° 0.1 mm 1 mps 750 mmHg 91%
    09:00 +28°C° 0.2 mm 1 mps 750 mmHg 86%
    10:00 +30°C° 0.2 mm 1 mps 750 mmHg 81%
    11:00 +31°C° 0.2 mm 1 mps 750 mmHg 76%
    12:00 +31°C° 0.8 mm 1 mps 749 mmHg 77%
    13:00 +31°C° 0.8 mm 1 mps 749 mmHg 78%
    14:00 +31°C° 0.8 mm 1 mps 748 mmHg 79%
    15:00 +30°C° 1.1 mm 1 mps 748 mmHg 81%
    16:00 +30°C° 1.1 mm 1 mps 747 mmHg 83%
    17:00 +30°C° 1.1 mm 1 mps 747 mmHg 85%
    18:00 +29°C° 0.2 mm 1 mps 748 mmHg 88%
    19:00 +26°C° 0.2 mm 0 mps 748 mmHg 91%
    20:00 +24°C° 0.2 mm 0 mps 749 mmHg 94%
    21:00 +24°C° 0.1 mm 0 mps 749 mmHg 95%
    22:00 +24°C° 0.1 mm 0 mps 750 mmHg 95%
    23:00 +24°C° 0.1 mm 0 mps 750 mmHg 96%
    Show more